Mankato, MN

8:54 PM CST on November 11, 2019 (GMT -0600)
Mankato Regional

Weather History for KMKT - October, 2019

Change the Weather History Date:

Monday, October 21, 2019

  Actual Average Record
Temperature  
Mean Temperature 47 °F -  
Max Temperature 53 °F 54 °F 73 °F (1999)
Min Temperature 39 °F 37 °F 26 °F (2018)
Degree Days  
Heating Degree Days 18    
Moisture  
Dew Point 46 °F    
Average Humidity 95    
Maximum Humidity 100    
Minimum Humidity 71    
Precipitation  
Precipitation 0.88 in - - ()
Sea Level Pressure  
Sea Level Pressure 29.24 in    
Wind  
Wind Speed 13 mph ()    
Max Wind Speed 25 mph    
Max Gust Speed 41 mph    
Visibility 7.8 miles    
Events Rain    
Averages and records for this station are not official NWS values.
T = Trace of Precipitation, MM = Missing Value Source: Averaged Metar Reports

Daily Weather History Graph

Daily Weather History Graph

Search for Another Location

Airport or City:

Astronomy

Oct. 21, 2019 Rise Set
Actual Time 7:37 AM CDT 6:22 PM CDT
Civil Twilight 7:08 AM CDT 6:51 PM CDT
Nautical Twilight 6:34 AM CDT 7:25 PM CDT
Astronomical Twilight 6:01 AM CDT 7:58 PM CDT
Moon No Moon Rise 3:04 PM CDT (10/21)
Length of Visible Light 11h 43m
Length of Day
10h 44m
Waning Gibbous, 48% of the Moon is Illuminated
Oct 21
Waning Gibbous
Oct 27
New
Nov 4
First Quarter
Nov 12
Full
Nov 19
Last Quarter

Hourly Weather History & Observations

Time (CDT) Temp. Windchill Dew Point Humidity Pressure Visibility Wind Dir Wind Speed Gust Speed Precip Events Conditions
12:56 AM 53.1 °F - 46.0 °F 77% 29.67 in 10.0 mi ESE 16.1 mph - 0.00 in Rain Light Rain
1:56 AM 52.0 °F - 46.0 °F 80% 29.62 in 10.0 mi East 16.1 mph - 0.02 in Rain Light Rain
2:56 AM 53.1 °F - 44.1 °F 71% 29.59 in 10.0 mi ESE 19.6 mph 27.6 mph 0.00 in   Overcast
3:56 AM 51.1 °F - 45.0 °F 80% 29.51 in 10.0 mi East 25.3 mph 33.4 mph 0.01 in Rain Light Rain
4:56 AM 48.9 °F - 46.0 °F 90% 29.48 in 10.0 mi East 19.6 mph - 0.01 in Rain Light Rain
5:56 AM 48.9 °F - 46.9 °F 93% 29.43 in 10.0 mi East 18.4 mph 25.3 mph 0.07 in Rain Light Rain
6:23 AM 48.2 °F - 46.4 °F 93% 29.41 in 10.0 mi East 16.1 mph 25.3 mph 0.00 in   Overcast
6:37 AM 48.2 °F - 46.4 °F 93% 29.40 in 10.0 mi East 16.1 mph - 0.00 in Rain Light Rain
6:56 AM 48.0 °F - 46.0 °F 93% 29.39 in 10.0 mi East 17.3 mph 23.0 mph 0.00 in Rain Light Rain
7:36 AM 46.4 °F 40.1 °F 46.4 °F 100% 29.34 in 10.0 mi ENE 15.0 mph 20.7 mph 0.01 in Rain Light Rain
7:56 AM 46.9 °F - 46.9 °F 100% 29.34 in 7.0 mi East 12.7 mph 20.7 mph 0.03 in Rain Rain
8:56 AM 48.0 °F - 48.0 °F 100% 29.32 in 3.0 mi East 11.5 mph - 0.20 in Rain Heavy Rain
9:23 AM 48.2 °F - 48.2 °F 100% 29.31 in 2.5 mi ESE 9.2 mph - 0.14 in Rain Heavy Rain
9:39 AM 48.2 °F - 48.2 °F 100% 29.29 in 3.0 mi East 10.4 mph - 0.22 in Rain Heavy Rain
9:46 AM 48.2 °F - 48.2 °F 100% 29.29 in 4.0 mi East 8.1 mph - 0.25 in Rain Rain
9:56 AM 48.9 °F - 48.0 °F 97% 29.29 in 3.0 mi East 9.2 mph - 0.28 in Rain Heavy Rain
10:56 AM 48.9 °F - 48.9 °F 100% 29.22 in 10.0 mi NNE 10.4 mph - 0.15 in Rain Light Rain
11:27 AM 48.2 °F - 48.2 °F 100% 29.18 in 10.0 mi NE 11.5 mph - 0.01 in Rain Light Rain
11:56 AM 50.0 °F - 48.9 °F 96% 29.21 in 10.0 mi ESE 8.1 mph - 0.01 in   Overcast
12:37 PM 50.0 °F - 48.2 °F 94% 29.17 in 10.0 mi ESE 5.8 mph - N/A   Overcast
12:53 PM 51.8 °F - 48.2 °F 88% 29.16 in 10.0 mi ESE 5.8 mph - N/A   Overcast
12:56 PM 51.1 °F - 48.9 °F 92% 29.17 in 10.0 mi ESE 4.6 mph - N/A   Overcast
1:41 PM 51.8 °F - 48.2 °F 88% 29.13 in 10.0 mi SSE 9.2 mph - N/A   Overcast
1:56 PM 51.1 °F - 48.9 °F 92% 29.14 in 10.0 mi South 9.2 mph - N/A   Overcast
2:19 PM 51.8 °F - 50.0 °F 94% 29.12 in 10.0 mi SSW 8.1 mph - N/A   Overcast
2:56 PM 50.0 °F - 48.0 °F 93% 29.13 in 10.0 mi SW 11.5 mph - N/A   Overcast
3:27 PM 48.2 °F - 48.2 °F 100% 29.13 in 10.0 mi SW 13.8 mph 19.6 mph N/A   Overcast
3:56 PM 48.9 °F - 46.9 °F 93% 29.15 in 10.0 mi SW 11.5 mph 18.4 mph N/A   Overcast
4:20 PM 48.2 °F - 46.4 °F 93% 29.13 in 10.0 mi SW 13.8 mph 20.7 mph N/A   Overcast
4:29 PM 48.2 °F - 46.4 °F 93% 29.13 in 10.0 mi SW 13.8 mph - N/A   Overcast
4:48 PM 48.2 °F - 46.4 °F 93% 29.13 in 6.0 mi SW 15.0 mph - 0.00 in Rain Light Rain
4:56 PM 46.9 °F - 46.9 °F 100% 29.14 in 8.0 mi WSW 15.0 mph - 0.00 in Rain Light Rain
5:56 PM 46.9 °F - 46.0 °F 97% 29.15 in 4.0 mi SSW 11.5 mph - 0.00 in Rain Light Rain
6:05 PM 46.4 °F 42.4 °F 46.4 °F 100% 29.13 in 2.5 mi SW 8.1 mph - 0.01 in Rain Light Rain
6:12 PM 46.4 °F 42.9 °F 46.4 °F 100% 29.13 in 10.0 mi SW 6.9 mph - 0.01 in Rain Light Rain
6:30 PM 46.4 °F 41.5 °F 46.4 °F 100% 29.13 in 2.0 mi WSW 10.4 mph - 0.01 in Rain Light Rain
6:33 PM 46.4 °F 40.1 °F 46.4 °F 100% 29.13 in 3.0 mi WSW 15.0 mph 18.4 mph 0.01 in Rain Light Rain
6:56 PM 45.0 °F 38.9 °F 45.0 °F 100% 29.15 in 10.0 mi West 12.7 mph - 0.01 in Rain Light Rain
7:03 PM 44.6 °F 39.2 °F 44.6 °F 100% 29.13 in 9.0 mi West 10.4 mph - 0.00 in Rain Light Rain
7:42 PM 44.6 °F 38.8 °F 44.6 °F 100% 29.14 in 2.5 mi WSW 11.5 mph - 0.01 in Rain Rain
7:56 PM 44.1 °F 37.1 °F 44.1 °F 100% 29.15 in 5.0 mi West 15.0 mph - 0.03 in Rain Rain
8:19 PM 44.6 °F 38.1 °F 44.6 °F 100% 29.13 in 9.0 mi West 13.8 mph - 0.02 in Rain Light Rain
8:56 PM 44.1 °F 35.7 °F 44.1 °F 100% 29.14 in 4.0 mi WNW 20.7 mph 25.3 mph 0.05 in Rain Light Rain
9:56 PM 43.0 °F 34.0 °F 43.0 °F 100% 29.16 in 3.0 mi NW 21.9 mph 41.4 mph 0.01 in Rain Light Rain
10:56 PM 41.0 °F 30.7 °F 41.0 °F 100% 29.22 in 10.0 mi NW 25.3 mph 34.5 mph 0.00 in Rain Light Rain
11:56 PM 39.9 °F 29.2 °F 39.9 °F 100% 29.26 in 6.0 mi WNW 25.3 mph 35.7 mph 0.00 in Rain Light Rain